Time,TemperatureF,DewpointF,PressureIn,WindDirection,WindDirectionDegrees,WindSpeedMPH,WindSpeedGustMPH,Humidity,HourlyPrecipIn,Conditions,Clouds,dailyrainin,SoftwareType,DateUTC
2013-08-19 00:01:00,70.6,67.5,30.27,SW,225,0.9,1.3,90,0.02,,,0.00,WUHU216HW,2013-08-19 04:01:00,
2013-08-19 00:02:00,70.6,67.5,30.27,SW,225,0.9,1.3,90,0.02,,,0.00,WUHU216HW,2013-08-19 04:02:00,
2013-08-19 00:07:00,70.6,67.5,30.27,WSW,248,2.0,2.7,90,0.01,,,0.00,WUHU216HW,2013-08-19 04:07:00,
2013-08-19 00:12:00,70.4,67.3,30.27,West,270,1.3,2.7,90,0.01,,,0.00,WUHU216HW,2013-08-19 04:12:00,
2013-08-19 00:17:00,70.4,67.3,30.27,WSW,248,0.4,1.3,90,0.01,,,0.00,WUHU216HW,2013-08-19 04:17:00,
2013-08-19 00:22:00,70.4,67.3,30.28,West,270,0.9,1.3,90,0.02,,,0.01,WUHU216HW,2013-08-19 04:22:00,
2013-08-19 00:28:00,70.4,67.3,30.28,West,270,0.0,0.9,90,0.02,,,0.01,WUHU216HW,2013-08-19 04:28:00,
2013-08-19 00:33:00,70.2,67.1,30.28,NW,315,0.2,0.9,90,0.02,,,0.01,WUHU216HW,2013-08-19 04:33:00,
2013-08-19 00:38:00,70.2,67.1,30.28,West,270,0.0,0.7,90,0.03,,,0.02,WUHU216HW,2013-08-19 04:38:00,
2013-08-19 00:43:00,70.2,67.1,30.28,WSW,248,0.0,0.2,90,0.03,,,0.03,WUHU216HW,2013-08-19 04:43:00,
2013-08-19 00:48:00,70.0,67.0,30.28,WNW,293,0.7,0.7,90,0.03,,,0.03,WUHU216HW,2013-08-19 04:48:00,
2013-08-19 00:53:00,70.0,67.0,30.28,WSW,248,0.4,0.7,90,0.03,,,0.03,WUHU216HW,2013-08-19 04:53:00,
2013-08-19 00:58:00,70.0,67.2,30.27,WSW,248,2.5,2.5,91,0.03,,,0.03,WUHU216HW,2013-08-19 04:58:00,
2013-08-19 01:03:00,69.8,67.1,30.28,WSW,248,2.0,2.5,91,0.03,,,0.03,WUHU216HW,2013-08-19 05:03:00,
2013-08-19 01:08:00,69.8,67.1,30.28,West,270,1.8,2.5,91,0.04,,,0.04,WUHU216HW,2013-08-19 05:08:00,
2013-08-19 01:13:00,69.7,66.9,30.27,WSW,248,1.8,2.0,91,0.05,,,0.05,WUHU216HW,2013-08-19 05:13:00,
2013-08-19 01:18:00,69.7,66.9,30.27,West,270,2.2,2.2,91,0.06,,,0.06,WUHU216HW,2013-08-19 05:18:00,
2013-08-19 01:23:00,69.5,66.7,30.27,WSW,243,1.8,2.5,91,0.07,,,0.08,WUHU216HW,2013-08-19 05:23:00,
2013-08-19 01:29:00,69.5,66.7,30.27,West,270,1.3,2.5,91,0.07,,,0.08,WUHU216HW,2013-08-19 05:29:00,
2013-08-19 01:34:00,69.5,66.7,30.26,West,270,0.0,1.8,91,0.08,,,0.09,WUHU216HW,2013-08-19 05:34:00,
2013-08-19 01:39:00,69.3,66.5,30.26,NNW,338,0.2,0.2,91,0.07,,,0.09,WUHU216HW,2013-08-19 05:39:00,
2013-08-19 01:44:00,69.3,66.5,30.25,North,0,0.4,0.4,91,0.08,,,0.11,WUHU216HW,2013-08-19 05:44:00,
2013-08-19 01:49:00,69.3,66.5,30.25,NNW,338,0.4,0.4,91,0.08,,,0.11,WUHU216HW,2013-08-19 05:49:00,
2013-08-19 01:54:00,69.1,66.3,30.25,NNW,338,0.0,0.4,91,0.09,,,0.12,WUHU216HW,2013-08-19 05:54:00,
2013-08-19 01:59:00,69.1,66.3,30.25,NW,315,0.0,0.0,91,0.09,,,0.12,WUHU216HW,2013-08-19 05:59:00,
2013-08-19 02:04:00,69.1,66.3,30.25,West,270,0.0,0.0,91,0.09,,,0.12,WUHU216HW,2013-08-19 06:04:00,
2013-08-19 02:09:00,68.9,66.2,30.25,West,270,0.0,0.0,91,0.08,,,0.12,WUHU216HW,2013-08-19 06:09:00,
2013-08-19 02:14:00,68.9,66.2,30.25,West,270,0.0,0.0,91,0.08,,,0.13,WUHU216HW,2013-08-19 06:14:00,
2013-08-19 02:19:00,68.9,66.2,30.25,WSW,248,0.4,0.4,91,0.07,,,0.13,WUHU216HW,2013-08-19 06:19:00,
2013-08-19 02:24:00,68.9,66.2,30.25,SW,225,0.0,0.4,91,0.05,,,0.13,WUHU216HW,2013-08-19 06:24:00,
2013-08-19 02:30:00,68.8,66.0,30.25,SW,225,0.4,0.4,91,0.04,,,0.13,WUHU216HW,2013-08-19 06:30:00,
2013-08-19 02:35:00,68.8,66.0,30.25,WSW,248,1.1,1.1,91,0.05,,,0.14,WUHU216HW,2013-08-19 06:35:00,
2013-08-19 02:40:00,68.8,66.0,30.25,West,270,0.0,1.1,91,0.05,,,0.14,WUHU216HW,2013-08-19 06:40:00,
2013-08-19 02:45:00,68.8,66.0,30.25,NNW,338,0.0,1.1,91,0.03,,,0.14,WUHU216HW,2013-08-19 06:45:00,
2013-08-19 02:50:00,68.8,66.0,30.25,NNW,338,0.0,0.0,91,0.03,,,0.14,WUHU216HW,2013-08-19 06:50:00,
2013-08-19 02:55:00,68.8,66.0,30.25,NNW,338,0.0,0.0,91,0.02,,,0.14,WUHU216HW,2013-08-19 06:55:00,
2013-08-19 03:00:00,68.8,66.0,30.24,NNW,338,0.0,0.0,91,0.03,,,0.15,WUHU216HW,2013-08-19 07:00:00,
2013-08-19 03:05:00,68.9,66.2,30.24,NNW,338,0.0,0.0,91,0.03,,,0.15,WUHU216HW,2013-08-19 07:05:00,
2013-08-19 03:10:00,68.8,66.3,30.24,NNE,23,0.0,0.0,92,0.03,,,0.15,WUHU216HW,2013-08-19 07:10:00,
2013-08-19 03:15:00,68.8,66.0,30.24,NNE,23,0.0,0.0,91,0.02,,,0.15,WUHU216HW,2013-08-19 07:15:00,
2013-08-19 03:20:00,68.8,66.0,30.24,NNE,23,0.0,0.0,91,0.02,,,0.15,WUHU216HW,2013-08-19 07:20:00,
2013-08-19 03:26:00,68.8,66.0,30.24,NNE,23,0.0,0.0,91,0.02,,,0.15,WUHU216HW,2013-08-19 07:26:00,
2013-08-19 03:31:00,68.8,66.0,30.24,NNE,23,0.0,0.0,91,0.02,,,0.15,WUHU216HW,2013-08-19 07:31:00,
2013-08-19 03:36:00,68.8,66.3,30.23,NNE,23,0.0,0.0,92,0.02,,,0.16,WUHU216HW,2013-08-19 07:36:00,
2013-08-19 03:41:00,68.8,66.3,30.23,NNE,23,0.0,0.0,92,0.02,,,0.16,WUHU216HW,2013-08-19 07:41:00,
2013-08-19 03:46:00,68.8,66.3,30.23,North,0,0.0,0.0,92,0.02,,,0.16,WUHU216HW,2013-08-19 07:46:00,
2013-08-19 03:51:00,68.8,66.3,30.23,North,0,0.0,0.0,92,0.02,,,0.16,WUHU216HW,2013-08-19 07:51:00,
2013-08-19 03:56:00,68.8,66.3,30.22,NE,45,0.0,0.0,92,0.02,,,0.17,WUHU216HW,2013-08-19 07:56:00,
2013-08-19 04:01:00,68.8,66.3,30.22,NNE,23,0.0,0.0,92,0.02,,,0.17,WUHU216HW,2013-08-19 08:01:00,
2013-08-19 04:06:00,68.8,66.3,30.22,NE,45,0.0,0.0,92,0.02,,,0.17,WUHU216HW,2013-08-19 08:06:00,
2013-08-19 04:11:00,68.6,66.2,30.22,NNE,23,0.0,0.0,92,0.02,,,0.17,WUHU216HW,2013-08-19 08:11:00,
2013-08-19 04:16:00,68.6,66.2,30.23,North,0,0.0,0.0,92,0.02,,,0.17,WUHU216HW,2013-08-19 08:16:00,
2013-08-19 04:21:00,68.8,66.3,30.22,NNE,23,0.0,0.0,92,0.02,,,0.17,WUHU216HW,2013-08-19 08:21:00,
2013-08-19 04:27:00,68.6,66.2,30.23,North,0,0.0,0.0,92,0.02,,,0.17,WUHU216HW,2013-08-19 08:27:00,
2013-08-19 04:32:00,68.8,66.3,30.23,North,0,0.0,0.0,92,0.01,,,0.17,WUHU216HW,2013-08-19 08:32:00,
2013-08-19 04:37:00,68.8,66.3,30.23,North,0,0.0,0.0,92,0.01,,,0.17,WUHU216HW,2013-08-19 08:37:00,
2013-08-19 04:42:00,68.6,66.2,30.22,NNE,23,0.0,0.0,92,0.01,,,0.17,WUHU216HW,2013-08-19 08:42:00,
2013-08-19 04:47:00,68.8,66.3,30.22,NNE,23,0.0,0.0,92,0.01,,,0.17,WUHU216HW,2013-08-19 08:47:00,
2013-08-19 04:52:00,68.6,66.4,30.22,ENE,68,0.0,0.0,93,0.00,,,0.17,WUHU216HW,2013-08-19 08:52:00,
2013-08-19 04:57:00,68.6,66.4,30.22,NNE,23,0.0,0.0,93,0.01,,,0.18,WUHU216HW,2013-08-19 08:57:00,
2013-08-19 05:02:00,68.6,66.4,30.22,North,0,0.0,0.0,93,0.01,,,0.18,WUHU216HW,2013-08-19 09:02:00,
2013-08-19 05:07:00,68.6,66.4,30.22,North,0,0.0,0.0,93,0.01,,,0.18,WUHU216HW,2013-08-19 09:07:00,
2013-08-19 05:12:00,68.6,66.4,30.22,North,0,0.0,0.0,93,0.02,,,0.19,WUHU216HW,2013-08-19 09:12:00,
2013-08-19 05:17:00,68.6,66.4,30.22,North,0,0.0,0.0,93,0.02,,,0.19,WUHU216HW,2013-08-19 09:17:00,
2013-08-19 05:22:00,68.6,66.4,30.22,NNE,23,0.0,0.0,93,0.02,,,0.19,WUHU216HW,2013-08-19 09:22:00,
2013-08-19 05:28:00,68.6,66.4,30.22,NNE,23,0.0,0.0,93,0.02,,,0.19,WUHU216HW,2013-08-19 09:28:00,
2013-08-19 05:33:00,68.6,66.4,30.22,North,0,0.0,0.0,93,0.02,,,0.19,WUHU216HW,2013-08-19 09:33:00,
2013-08-19 05:38:00,68.6,66.4,30.22,North,0,0.0,0.0,93,0.02,,,0.19,WUHU216HW,2013-08-19 09:38:00,
2013-08-19 05:43:00,68.4,66.2,30.21,North,0,0.0,0.0,93,0.02,,,0.19,WUHU216HW,2013-08-19 09:43:00,
2013-08-19 05:48:00,68.4,66.2,30.21,North,0,0.0,0.0,93,0.04,,,0.21,WUHU216HW,2013-08-19 09:48:00,
2013-08-19 05:53:00,68.4,66.2,30.21,NW,315,0.0,0.0,93,0.04,,,0.21,WUHU216HW,2013-08-19 09:53:00,
2013-08-19 05:58:00,68.4,66.2,30.20,NE,45,0.0,0.0,93,0.03,,,0.21,WUHU216HW,2013-08-19 09:58:00,
2013-08-19 06:03:00,68.4,66.2,30.20,North,0,0.0,0.0,93,0.03,,,0.21,WUHU216HW,2013-08-19 10:03:00,
2013-08-19 06:08:00,68.2,66.1,30.20,NE,39,0.3,0.4,93,0.03,,,0.21,WUHU216HW,2013-08-19 10:08:00,
2013-08-19 06:13:00,68.0,65.9,30.21,North,0,0.2,0.4,93,0.02,,,0.21,WUHU216HW,2013-08-19 10:13:00,
2013-08-19 06:18:00,68.0,65.9,30.21,West,270,0.0,0.2,93,0.02,,,0.21,WUHU216HW,2013-08-19 10:18:00,
2013-08-19 06:23:00,68.0,65.9,30.21,ENE,68,0.0,0.0,93,0.02,,,0.21,WUHU216HW,2013-08-19 10:23:00,
2013-08-19 06:29:00,68.0,65.9,30.21,North,0,0.4,0.4,93,0.02,,,0.21,WUHU216HW,2013-08-19 10:29:00,
2013-08-19 06:34:00,68.0,65.9,30.21,North,0,0.4,0.4,93,0.02,,,0.21,WUHU216HW,2013-08-19 10:34:00,
2013-08-19 06:39:00,67.9,65.7,30.21,North,0,0.4,0.4,93,0.02,,,0.21,WUHU216HW,2013-08-19 10:39:00,
2013-08-19 06:44:00,67.9,65.7,30.22,NNE,23,0.0,0.4,93,0.00,,,0.21,WUHU216HW,2013-08-19 10:44:00,
2013-08-19 06:49:00,67.9,65.7,30.21,NE,45,0.0,0.4,93,0.00,,,0.21,WUHU216HW,2013-08-19 10:49:00,
2013-08-19 06:54:00,67.7,65.5,30.21,North,0,0.0,0.0,93,0.00,,,0.21,WUHU216HW,2013-08-19 10:54:00,
2013-08-19 06:59:00,67.7,65.5,30.21,NNE,23,0.0,0.0,93,0.00,,,0.21,WUHU216HW,2013-08-19 10:59:00,
2013-08-19 07:04:00,67.7,65.5,30.21,North,0,0.0,0.0,93,0.00,,,0.21,WUHU216HW,2013-08-19 11:04:00,
2013-08-19 07:09:00,67.5,65.3,30.22,ENE,68,0.0,0.0,93,0.00,,,0.21,WUHU216HW,2013-08-19 11:09:00,
2013-08-19 07:14:00,67.5,65.3,30.21,ENE,68,0.0,1.1,93,0.00,,,0.21,WUHU216HW,2013-08-19 11:14:00,
2013-08-19 07:19:00,67.5,65.3,30.21,NNW,338,0.2,1.1,93,0.00,,,0.21,WUHU216HW,2013-08-19 11:19:00,
2013-08-19 07:24:00,67.5,65.3,30.21,NNE,23,0.4,0.4,93,0.00,,,0.21,WUHU216HW,2013-08-19 11:24:00,
2013-08-19 07:30:00,67.5,65.3,30.21,NNW,338,0.2,0.4,93,0.00,,,0.21,WUHU216HW,2013-08-19 11:30:00,
2013-08-19 07:35:00,67.5,65.3,30.21,NNW,338,0.0,0.4,93,0.00,,,0.21,WUHU216HW,2013-08-19 11:35:00,
2013-08-19 07:40:00,67.7,65.9,30.21,East,90,0.4,0.4,94,0.00,,,0.21,WUHU216HW,2013-08-19 11:40:00,
2013-08-19 07:45:00,67.7,65.9,30.21,NE,45,3.1,3.1,94,0.00,,,0.21,WUHU216HW,2013-08-19 11:45:00,
2013-08-19 07:50:00,67.9,66.1,30.21,SE,135,1.6,3.1,94,0.00,,,0.21,WUHU216HW,2013-08-19 11:50:00,
2013-08-19 07:55:00,68.0,66.3,30.21,WNW,293,0.2,3.1,94,0.00,,,0.21,WUHU216HW,2013-08-19 11:55:00,
2013-08-19 08:00:00,68.0,66.3,30.21,NNE,23,1.8,1.8,94,0.02,,,0.23,WUHU216HW,2013-08-19 12:00:00,
2013-08-19 08:05:00,68.0,66.3,30.21,NNE,23,2.9,2.9,94,0.02,,,0.23,WUHU216HW,2013-08-19 12:05:00,
2013-08-19 08:10:00,68.0,66.3,30.21,SE,135,0.4,2.9,94,0.02,,,0.23,WUHU216HW,2013-08-19 12:10:00,
2013-08-19 08:15:00,68.0,66.3,30.22,North,0,1.3,2.9,94,0.02,,,0.23,WUHU216HW,2013-08-19 12:15:00,
2013-08-19 08:20:00,68.2,66.4,30.22,NNE,14,2.3,3.4,94,0.04,,,0.25,WUHU216HW,2013-08-19 12:20:00,
2013-08-19 08:26:00,68.4,66.2,30.22,North,0,1.1,3.4,93,0.04,,,0.25,WUHU216HW,2013-08-19 12:26:00,
2013-08-19 08:31:00,68.6,66.4,30.22,ENE,68,1.6,2.0,93,0.04,,,0.25,WUHU216HW,2013-08-19 12:31:00,
2013-08-19 08:36:00,68.6,66.4,30.22,North,0,2.2,2.2,93,0.04,,,0.25,WUHU216HW,2013-08-19 12:36:00,
2013-08-19 08:41:00,68.6,66.4,30.22,NNW,338,1.1,2.2,93,0.04,,,0.25,WUHU216HW,2013-08-19 12:41:00,
2013-08-19 08:46:00,68.6,66.4,30.22,NE,45,2.9,2.9,93,0.04,,,0.25,WUHU216HW,2013-08-19 12:46:00,
2013-08-19 08:51:00,68.6,66.4,30.21,North,0,2.5,2.9,93,0.04,,,0.25,WUHU216HW,2013-08-19 12:51:00,
2013-08-19 08:56:00,68.8,66.6,30.21,NNE,23,3.4,3.4,93,0.07,,,0.28,WUHU216HW,2013-08-19 12:56:00,
2013-08-19 09:01:00,68.8,66.6,30.21,NNE,23,1.8,3.4,93,0.05,,,0.28,WUHU216HW,2013-08-19 13:01:00,
2013-08-19 09:06:00,68.8,66.6,30.21,NNE,23,1.3,3.4,93,0.05,,,0.28,WUHU216HW,2013-08-19 13:06:00,
2013-08-19 09:11:00,68.8,66.6,30.21,NE,40,1.5,1.8,93,0.05,,,0.28,WUHU216HW,2013-08-19 13:11:00,
2013-08-19 09:17:00,68.8,66.6,30.21,SSE,158,0.2,1.8,93,0.05,,,0.28,WUHU216HW,2013-08-19 13:17:00,
2013-08-19 09:22:00,68.8,66.6,30.21,WNW,293,0.0,1.3,93,0.03,,,0.28,WUHU216HW,2013-08-19 13:22:00,
2013-08-19 09:27:00,68.6,66.4,30.22,North,0,0.9,1.3,93,0.03,,,0.28,WUHU216HW,2013-08-19 13:27:00,
2013-08-19 09:32:00,68.6,66.4,30.22,NNW,338,0.9,1.3,93,0.03,,,0.28,WUHU216HW,2013-08-19 13:32:00,
2013-08-19 09:37:00,68.6,66.4,30.23,North,0,0.4,0.9,93,0.03,,,0.28,WUHU216HW,2013-08-19 13:37:00,
2013-08-19 09:42:00,68.4,66.2,30.24,WSW,248,0.9,0.9,93,0.05,,,0.30,WUHU216HW,2013-08-19 13:42:00,
2013-08-19 09:47:00,68.4,66.2,30.25,North,0,1.6,1.6,93,0.07,,,0.32,WUHU216HW,2013-08-19 13:47:00,
2013-08-19 09:52:00,68.4,66.2,30.24,North,0,1.1,1.6,93,0.07,,,0.32,WUHU216HW,2013-08-19 13:52:00,
2013-08-19 09:57:00,68.2,66.1,30.25,NW,315,3.1,3.1,93,0.06,,,0.34,WUHU216HW,2013-08-19 13:57:00,
2013-08-19 10:02:00,68.0,65.9,30.25,WSW,248,2.0,3.1,93,0.12,,,0.40,WUHU216HW,2013-08-19 14:02:00,
2013-08-19 10:07:00,68.0,65.6,30.26,South,188,0.6,3.1,92,0.13,,,0.41,WUHU216HW,2013-08-19 14:07:00,
2013-08-19 10:12:00,67.7,65.3,30.26,NNE,23,1.3,2.0,92,0.16,,,0.44,WUHU216HW,2013-08-19 14:12:00,
2013-08-19 10:18:00,67.5,65.1,30.26,NW,315,2.2,2.5,92,0.18,,,0.46,WUHU216HW,2013-08-19 14:18:00,
2013-08-19 10:23:00,67.1,65.0,30.26,NNE,23,1.9,2.5,93,0.19,,,0.47,WUHU216HW,2013-08-19 14:23:00,
2013-08-19 10:28:00,67.0,64.8,30.26,NNE,30,0.4,2.2,93,0.20,,,0.48,WUHU216HW,2013-08-19 14:28:00,
2013-08-19 10:33:00,67.0,64.8,30.26,NNE,33,0.8,0.9,93,0.30,,,0.58,WUHU216HW,2013-08-19 14:33:00,
2013-08-19 10:38:00,66.8,64.6,30.26,NW,315,0.0,0.9,93,0.31,,,0.59,WUHU216HW,2013-08-19 14:38:00,
2013-08-19 10:43:00,66.8,64.6,30.26,NE,45,0.4,0.7,93,0.36,,,0.66,WUHU216HW,2013-08-19 14:43:00,
2013-08-19 10:48:00,66.8,64.6,30.26,NNE,23,0.9,0.9,93,0.35,,,0.67,WUHU216HW,2013-08-19 14:48:00,
2013-08-19 10:53:00,66.8,64.6,30.26,North,0,1.1,1.1,93,0.41,,,0.73,WUHU216HW,2013-08-19 14:53:00,
2013-08-19 10:58:00,66.6,64.4,30.26,North,0,0.6,1.1,93,0.33,,,0.73,WUHU216HW,2013-08-19 14:58:00,
2013-08-19 11:03:00,66.6,64.4,30.26,NNE,23,0.7,1.1,93,0.36,,,0.76,WUHU216HW,2013-08-19 15:03:00,
2013-08-19 11:08:00,66.8,64.6,30.26,NNW,338,0.7,0.7,93,0.37,,,0.78,WUHU216HW,2013-08-19 15:08:00,
2013-08-19 11:13:00,67.0,64.8,30.26,SSE,166,0.8,0.9,93,0.38,,,0.82,WUHU216HW,2013-08-19 15:13:00,
2013-08-19 11:18:00,67.1,65.0,30.26,SSE,158,1.1,1.1,93,0.38,,,0.84,WUHU216HW,2013-08-19 15:18:00,
2013-08-19 11:23:00,67.5,65.3,30.26,South,191,0.6,1.3,93,0.37,,,0.84,WUHU216HW,2013-08-19 15:23:00,
2013-08-19 11:29:00,67.7,65.5,30.26,NW,315,0.4,1.3,93,0.38,,,0.86,WUHU216HW,2013-08-19 15:29:00,
2013-08-19 11:34:00,67.9,65.7,30.26,North,0,1.1,1.1,93,0.28,,,0.86,WUHU216HW,2013-08-19 15:34:00,
2013-08-19 11:39:00,67.9,65.7,30.27,NW,315,0.4,1.1,93,0.27,,,0.86,WUHU216HW,2013-08-19 15:39:00,
2013-08-19 11:44:00,68.0,65.9,30.26,SSE,158,0.7,1.1,93,0.22,,,0.88,WUHU216HW,2013-08-19 15:44:00,
2013-08-19 11:49:00,68.2,66.1,30.27,SSE,158,0.9,0.9,93,0.19,,,0.88,WUHU216HW,2013-08-19 15:49:00,
2013-08-19 11:54:00,68.6,66.4,30.26,SE,135,1.8,1.8,93,0.20,,,0.93,WUHU216HW,2013-08-19 15:54:00,
2013-08-19 11:59:00,68.9,66.8,30.26,ESE,113,1.8,1.8,93,0.22,,,0.95,WUHU216HW,2013-08-19 15:59:00,
2013-08-19 12:04:00,69.5,67.1,30.26,ENE,68,1.1,1.8,92,0.19,,,0.95,WUHU216HW,2013-08-19 16:04:00,
2013-08-19 12:09:00,69.7,67.2,30.26,SSW,203,0.9,1.8,92,0.17,,,0.95,WUHU216HW,2013-08-19 16:09:00,
2013-08-19 12:14:00,70.0,67.6,30.25,SE,135,0.7,1.3,92,0.15,,,0.97,WUHU216HW,2013-08-19 16:14:00,
2013-08-19 12:19:00,70.2,67.4,30.25,SE,135,0.4,1.3,91,0.13,,,0.97,WUHU216HW,2013-08-19 16:19:00,
2013-08-19 12:24:00,70.4,67.6,30.25,North,0,1.3,1.3,91,0.13,,,0.97,WUHU216HW,2013-08-19 16:24:00,
2013-08-19 12:29:00,70.6,67.8,30.25,ENE,68,0.9,1.3,91,0.11,,,0.97,WUHU216HW,2013-08-19 16:29:00,
2013-08-19 12:34:00,70.9,67.9,30.25,ESE,113,0.9,1.3,90,0.11,,,0.97,WUHU216HW,2013-08-19 16:34:00,
2013-08-19 12:40:00,71.5,68.4,30.25,NE,45,1.6,1.6,90,0.09,,,0.97,WUHU216HW,2013-08-19 16:40:00,
2013-08-19 12:45:00,72.0,68.6,30.25,North,0,1.3,1.6,89,0.09,,,0.97,WUHU216HW,2013-08-19 16:45:00,
2013-08-19 12:50:00,72.7,68.9,30.24,ESE,113,2.5,3.4,88,0.09,,,0.97,WUHU216HW,2013-08-19 16:50:00,
2013-08-19 12:55:00,73.3,69.8,30.24,NE,45,1.1,3.4,89,0.04,,,0.97,WUHU216HW,2013-08-19 16:55:00,
2013-08-19 13:00:00,73.4,69.0,30.24,NE,45,2.0,2.5,86,0.02,,,0.97,WUHU216HW,2013-08-19 17:00:00,
2013-08-19 13:05:00,73.4,69.4,30.25,NE,40,1.5,2.0,87,0.02,,,0.97,WUHU216HW,2013-08-19 17:05:00,
2013-08-19 13:10:00,73.6,69.6,30.25,WNW,293,0.5,2.0,87,0.02,,,0.97,WUHU216HW,2013-08-19 17:10:00,
2013-08-19 13:15:00,74.5,70.5,30.25,North,0,1.8,1.8,87,0.00,,,0.97,WUHU216HW,2013-08-19 17:15:00,
2013-08-19 13:20:00,75.2,70.5,30.24,West,270,0.4,2.2,85,0.00,,,0.97,WUHU216HW,2013-08-19 17:20:00,
2013-08-19 13:25:00,75.8,70.3,30.25,North,0,4.7,4.7,83,0.00,,,0.97,WUHU216HW,2013-08-19 17:25:00,
2013-08-19 13:30:00,75.2,69.5,30.24,ENE,68,0.2,4.7,82,0.00,,,0.97,WUHU216HW,2013-08-19 17:30:00,
2013-08-19 13:35:00,76.5,70.3,30.24,North,0,0.4,4.7,81,0.00,,,0.97,WUHU216HW,2013-08-19 17:35:00,
2013-08-19 13:41:00,76.3,69.8,30.24,ENE,68,1.8,1.8,80,0.00,,,0.97,WUHU216HW,2013-08-19 17:41:00,
2013-08-19 13:46:00,76.7,69.3,30.24,North,0,2.7,2.7,78,0.00,,,0.97,WUHU216HW,2013-08-19 17:46:00,
2013-08-19 13:51:00,76.3,68.6,30.24,North,0,3.1,3.1,77,0.00,,,0.97,WUHU216HW,2013-08-19 17:51:00,
2013-08-19 13:56:00,76.7,70.0,30.24,ENE,61,2.4,3.1,80,0.00,,,0.97,WUHU216HW,2013-08-19 17:56:00,
2013-08-19 14:01:00,76.9,69.5,30.23,ENE,68,0.4,3.1,78,0.00,,,0.97,WUHU216HW,2013-08-19 18:01:00,
2013-08-19 14:06:00,77.4,70.4,30.23,North,0,1.8,1.8,79,0.00,,,0.97,WUHU216HW,2013-08-19 18:06:00,
2013-08-19 14:11:00,77.8,70.3,30.23,WSW,248,1.3,1.8,78,0.00,,,0.97,WUHU216HW,2013-08-19 18:11:00,
2013-08-19 14:16:00,78.3,70.1,30.23,North,0,2.3,3.4,76,0.00,,,0.97,WUHU216HW,2013-08-19 18:16:00,
2013-08-19 14:21:00,79.0,71.6,30.23,SSE,155,1.5,3.6,78,0.00,,,0.97,WUHU216HW,2013-08-19 18:21:00,
2013-08-19 14:26:00,79.2,70.6,30.23,East,90,1.6,3.6,75,0.00,,,0.97,WUHU216HW,2013-08-19 18:26:00,
2013-08-19 14:31:00,79.0,70.0,30.23,NE,56,1.7,1.8,74,0.00,,,0.97,WUHU216HW,2013-08-19 18:31:00,
2013-08-19 14:36:00,79.6,70.9,30.23,SE,135,1.1,1.8,75,0.00,,,0.97,WUHU216HW,2013-08-19 18:36:00,
2013-08-19 14:41:00,80.3,71.6,30.23,NE,45,0.4,1.6,75,0.00,,,0.97,WUHU216HW,2013-08-19 18:41:00,
2013-08-19 14:47:00,80.6,72.0,30.23,SSE,158,2.0,2.0,75,0.00,,,0.97,WUHU216HW,2013-08-19 18:47:00,
2013-08-19 14:52:00,80.3,71.6,30.22,North,355,1.4,2.0,75,0.00,,,0.97,WUHU216HW,2013-08-19 18:52:00,
2013-08-19 14:57:00,80.5,71.0,30.22,East,97,1.0,2.0,73,0.00,,,0.97,WUHU216HW,2013-08-19 18:57:00,
2013-08-19 15:02:00,80.3,70.5,30.21,NNW,338,1.1,1.1,72,0.00,,,0.97,WUHU216HW,2013-08-19 19:02:00,
2013-08-19 15:07:00,79.9,69.7,30.21,NNW,338,2.7,2.7,71,0.00,,,0.97,WUHU216HW,2013-08-19 19:07:00,
2013-08-19 15:12:00,78.8,68.6,30.21,North,0,1.7,2.7,71,0.00,,,0.97,WUHU216HW,2013-08-19 19:12:00,
2013-08-19 15:17:00,78.7,69.2,30.21,NNE,29,2.4,3.4,73,0.00,,,0.97,WUHU216HW,2013-08-19 19:17:00,
2013-08-19 15:22:00,78.8,68.6,30.21,NE,45,1.1,3.4,71,0.00,,,0.97,WUHU216HW,2013-08-19 19:22:00,
2013-08-19 15:27:00,78.8,69.4,30.20,ENE,68,1.8,2.0,73,0.00,,,0.97,WUHU216HW,2013-08-19 19:27:00,
2013-08-19 15:32:00,79.0,68.8,30.20,NNE,23,1.3,2.2,71,0.00,,,0.97,WUHU216HW,2013-08-19 19:32:00,
2013-08-19 15:37:00,78.8,69.0,30.20,NNW,338,1.1,2.2,72,0.00,,,0.97,WUHU216HW,2013-08-19 19:37:00,
2013-08-19 15:42:00,79.2,70.2,30.20,SW,225,1.7,1.8,74,0.00,,,0.97,WUHU216HW,2013-08-19 19:42:00,
2013-08-19 15:47:00,79.7,70.3,30.20,NE,45,0.9,1.8,73,0.00,,,0.97,WUHU216HW,2013-08-19 19:47:00,
2013-08-19 15:53:00,79.2,68.9,30.19,NNE,33,0.8,0.9,71,0.00,,,0.97,WUHU216HW,2013-08-19 19:53:00,
2013-08-19 15:58:00,79.0,69.6,30.19,North,0,0.9,1.3,73,0.00,,,0.97,WUHU216HW,2013-08-19 19:58:00,
2013-08-19 16:03:00,78.8,68.6,30.19,ENE,68,1.8,2.0,71,0.00,,,0.97,WUHU216HW,2013-08-19 20:03:00,
2013-08-19 16:08:00,79.6,70.1,30.19,ENE,75,1.4,2.0,73,0.00,,,0.97,WUHU216HW,2013-08-19 20:08:00,
2013-08-19 16:13:00,80.6,70.0,30.19,NNE,23,2.5,2.5,70,0.00,,,0.97,WUHU216HW,2013-08-19 20:13:00,
2013-08-19 16:18:00,80.6,70.8,30.19,SSW,203,1.1,2.5,72,0.00,,,0.97,WUHU216HW,2013-08-19 20:18:00,
2013-08-19 16:23:00,80.8,70.2,30.19,North,0,1.8,2.5,70,0.00,,,0.97,WUHU216HW,2013-08-19 20:23:00,
2013-08-19 16:28:00,80.3,70.0,30.19,NE,45,2.4,2.9,71,0.00,,,0.97,WUHU216HW,2013-08-19 20:28:00,
2013-08-19 16:33:00,80.3,69.7,30.19,NE,45,1.8,2.9,70,0.00,,,0.97,WUHU216HW,2013-08-19 20:33:00,
2013-08-19 16:38:00,79.9,68.9,30.19,North,0,0.7,2.0,69,0.00,,,0.97,WUHU216HW,2013-08-19 20:38:00,
2013-08-19 16:44:00,79.6,69.3,30.19,SE,135,0.4,2.0,71,0.00,,,0.97,WUHU216HW,2013-08-19 20:44:00,
2013-08-19 16:49:00,79.9,70.1,30.19,ESE,113,0.9,1.8,72,0.00,,,0.97,WUHU216HW,2013-08-19 20:49:00,
2013-08-19 16:54:00,80.5,70.7,30.19,ESE,113,1.8,2.5,72,0.00,,,0.97,WUHU216HW,2013-08-19 20:54:00,
2013-08-19 16:59:00,81.0,70.7,30.19,SSW,194,0.8,2.5,71,0.00,,,0.97,WUHU216HW,2013-08-19 20:59:00,
2013-08-19 17:04:00,81.0,70.4,30.19,NE,45,0.7,1.8,70,0.00,,,0.97,WUHU216HW,2013-08-19 21:04:00,
2013-08-19 17:09:00,80.8,70.2,30.18,NW,315,0.4,0.7,70,0.00,,,0.97,WUHU216HW,2013-08-19 21:09:00,
2013-08-19 17:14:00,80.1,69.5,30.18,SSE,158,0.9,0.9,70,0.00,,,0.97,WUHU216HW,2013-08-19 21:14:00,
2013-08-19 17:19:00,80.5,70.2,30.18,WNW,293,0.4,0.9,71,0.00,,,0.97,WUHU216HW,2013-08-19 21:19:00,
2013-08-19 17:24:00,80.6,70.4,30.18,East,90,0.4,0.9,71,0.00,,,0.97,WUHU216HW,2013-08-19 21:24:00,
2013-08-19 17:30:00,80.8,70.2,30.17,ENE,68,0.7,0.7,70,0.00,,,0.97,WUHU216HW,2013-08-19 21:30:00,
2013-08-19 17:35:00,81.0,70.4,30.17,SSW,203,0.0,0.7,70,0.00,,,0.97,WUHU216HW,2013-08-19 21:35:00,
2013-08-19 17:40:00,80.5,69.8,30.17,South,180,1.8,2.2,70,0.00,,,0.97,WUHU216HW,2013-08-19 21:40:00,
2013-08-19 17:45:00,80.5,69.8,30.17,SW,225,0.7,2.2,70,0.00,,,0.97,WUHU216HW,2013-08-19 21:45:00,
2013-08-19 17:50:00,80.5,69.8,30.17,SSE,156,1.8,1.8,70,0.00,,,0.97,WUHU216HW,2013-08-19 21:50:00,
2013-08-19 17:55:00,80.1,69.5,30.17,South,173,1.4,1.8,70,0.00,,,0.97,WUHU216HW,2013-08-19 21:55:00,
2013-08-19 18:00:00,79.9,69.7,30.17,ESE,109,0.8,1.8,71,0.00,,,0.97,WUHU216HW,2013-08-19 22:00:00,
2013-08-19 18:05:00,79.9,69.7,30.17,SE,135,0.4,1.1,71,0.00,,,0.97,WUHU216HW,2013-08-19 22:05:00,
2013-08-19 18:10:00,79.6,69.3,30.17,SSE,158,0.4,0.7,71,0.00,,,0.97,WUHU216HW,2013-08-19 22:10:00,
2013-08-19 18:15:00,79.4,69.1,30.17,North,0,1.1,1.1,71,0.00,,,0.97,WUHU216HW,2013-08-19 22:15:00,
2013-08-19 18:20:00,79.0,68.8,30.17,NNW,338,0.0,1.1,71,0.00,,,0.97,WUHU216HW,2013-08-19 22:20:00,
2013-08-19 18:25:00,78.8,69.0,30.17,ESE,113,0.0,1.1,72,0.00,,,0.97,WUHU216HW,2013-08-19 22:25:00,
2013-08-19 18:30:00,78.8,69.0,30.17,SE,135,2.2,2.2,72,0.00,,,0.97,WUHU216HW,2013-08-19 22:30:00,
2013-08-19 18:35:00,78.8,69.0,30.17,SSE,158,1.5,2.2,72,0.00,,,0.97,WUHU216HW,2013-08-19 22:35:00,
2013-08-19 18:40:00,78.7,68.9,30.17,ENE,68,0.0,2.2,72,0.00,,,0.97,WUHU216HW,2013-08-19 22:40:00,
2013-08-19 18:46:00,78.5,68.7,30.17,NNE,23,0.0,1.3,72,0.00,,,0.97,WUHU216HW,2013-08-19 22:46:00,
2013-08-19 18:51:00,78.1,68.8,30.17,ESE,113,0.0,0.0,73,0.00,,,0.97,WUHU216HW,2013-08-19 22:51:00,
2013-08-19 18:56:00,78.1,68.8,30.18,SE,135,0.7,0.7,73,0.00,,,0.97,WUHU216HW,2013-08-19 22:56:00,
2013-08-19 19:01:00,77.8,68.4,30.17,SE,135,0.7,0.7,73,0.00,,,0.97,WUHU216HW,2013-08-19 23:01:00,
2013-08-19 19:06:00,77.2,68.3,30.18,East,90,0.0,0.7,74,0.00,,,0.97,WUHU216HW,2013-08-19 23:06:00,
2013-08-19 19:11:00,76.7,68.1,30.18,East,90,0.0,0.0,75,0.00,,,0.97,WUHU216HW,2013-08-19 23:11:00,
2013-08-19 19:16:00,76.7,68.1,30.18,East,90,0.0,0.0,75,0.00,,,0.97,WUHU216HW,2013-08-19 23:16:00,
2013-08-19 19:21:00,75.6,67.5,30.18,East,90,0.0,0.0,76,0.00,,,0.97,WUHU216HW,2013-08-19 23:21:00,
2013-08-19 19:26:00,75.2,67.6,30.18,East,90,0.0,0.0,77,0.00,,,0.97,WUHU216HW,2013-08-19 23:26:00,
2013-08-19 19:31:00,74.9,67.6,30.18,East,90,0.0,0.0,78,0.00,,,0.97,WUHU216HW,2013-08-19 23:31:00,
2013-08-19 19:37:00,74.7,67.4,30.18,East,90,0.0,0.0,78,0.00,,,0.97,WUHU216HW,2013-08-19 23:37:00,
2013-08-19 19:42:00,74.3,67.1,30.18,East,90,0.0,0.0,78,0.00,,,0.97,WUHU216HW,2013-08-19 23:42:00,
2013-08-19 19:47:00,74.2,66.9,30.18,East,90,0.0,0.0,78,0.00,,,0.97,WUHU216HW,2013-08-19 23:47:00,
2013-08-19 19:52:00,73.8,67.0,30.19,East,90,0.0,0.0,79,0.00,,,0.97,WUHU216HW,2013-08-19 23:52:00,
2013-08-19 19:57:00,73.6,66.8,30.18,East,90,0.0,0.0,79,0.00,,,0.97,WUHU216HW,2013-08-19 23:57:00,
2013-08-19 20:02:00,73.1,67.0,30.18,ENE,68,0.0,0.0,81,0.00,,,0.97,WUHU216HW,2013-08-20 00:02:00,
2013-08-19 20:07:00,72.7,66.6,30.18,ENE,68,0.0,0.0,81,0.00,,,0.97,WUHU216HW,2013-08-20 00:07:00,
2013-08-19 20:12:00,72.4,66.3,30.19,ENE,68,0.0,0.0,81,0.00,,,0.97,WUHU216HW,2013-08-20 00:12:00,
2013-08-19 20:17:00,72.2,66.1,30.19,ENE,68,0.0,0.0,81,0.00,,,0.97,WUHU216HW,2013-08-20 00:17:00,
2013-08-19 20:22:00,72.0,66.3,30.19,ENE,68,0.0,0.0,82,0.00,,,0.97,WUHU216HW,2013-08-20 00:22:00,
2013-08-19 20:27:00,71.6,65.9,30.19,ENE,68,0.0,0.0,82,0.00,,,0.97,WUHU216HW,2013-08-20 00:27:00,
2013-08-19 20:33:00,71.5,65.7,30.19,ENE,68,0.0,0.0,82,0.00,,,0.97,WUHU216HW,2013-08-20 00:33:00,
2013-08-19 20:38:00,71.3,65.5,30.19,ENE,68,0.0,0.0,82,0.00,,,0.97,WUHU216HW,2013-08-20 00:38:00,
2013-08-19 20:43:00,71.1,65.6,30.19,ENE,68,0.0,0.0,83,0.00,,,0.97,WUHU216HW,2013-08-20 00:43:00,
2013-08-19 20:48:00,70.7,65.6,30.19,ENE,68,0.0,0.0,84,0.00,,,0.97,WUHU216HW,2013-08-20 00:48:00,
2013-08-19 20:53:00,70.6,65.4,30.19,NE,45,0.0,0.0,84,0.00,,,0.97,WUHU216HW,2013-08-20 00:53:00,
2013-08-19 20:58:00,70.4,65.3,30.19,NNE,23,0.0,0.0,84,0.00,,,0.97,WUHU216HW,2013-08-20 00:58:00,
2013-08-19 21:03:00,70.2,65.1,30.19,NNE,23,0.0,0.0,84,0.00,,,0.97,WUHU216HW,2013-08-20 01:03:00,
2013-08-19 21:08:00,70.0,64.9,30.19,SSE,158,0.0,0.0,84,0.00,,,0.97,WUHU216HW,2013-08-20 01:08:00,
2013-08-19 21:13:00,69.8,64.7,30.20,SSE,158,0.0,0.0,84,0.00,,,0.97,WUHU216HW,2013-08-20 01:13:00,
2013-08-19 21:18:00,69.7,64.9,30.20,SSE,158,0.0,0.0,85,0.00,,,0.97,WUHU216HW,2013-08-20 01:18:00,
2013-08-19 21:24:00,69.5,64.7,30.20,SSE,158,0.0,0.0,85,0.00,,,0.97,WUHU216HW,2013-08-20 01:24:00,
2013-08-19 21:29:00,69.5,65.1,30.20,SSE,158,0.0,0.0,86,0.00,,,0.97,WUHU216HW,2013-08-20 01:29:00,
2013-08-19 21:34:00,69.7,65.3,30.20,SSE,158,0.0,0.0,86,0.00,,,0.97,WUHU216HW,2013-08-20 01:34:00,
2013-08-19 21:39:00,69.7,65.3,30.20,NNW,338,0.0,0.0,86,0.00,,,0.97,WUHU216HW,2013-08-20 01:39:00,
2013-08-19 21:44:00,69.8,65.8,30.20,NNW,338,0.0,0.0,87,0.00,,,0.97,WUHU216HW,2013-08-20 01:44:00,
2013-08-19 21:49:00,70.0,66.2,30.20,NNE,23,0.0,0.0,88,0.00,,,0.97,WUHU216HW,2013-08-20 01:49:00,
2013-08-19 21:54:00,70.0,66.0,30.20,NNE,23,0.0,0.0,87,0.00,,,0.97,WUHU216HW,2013-08-20 01:54:00,
2013-08-19 21:59:00,69.8,65.8,30.20,North,0,0.0,0.0,87,0.00,,,0.97,WUHU216HW,2013-08-20 01:59:00,
2013-08-19 22:04:00,69.7,65.9,30.20,NNE,23,0.0,0.0,88,0.00,,,0.97,WUHU216HW,2013-08-20 02:04:00,
2013-08-19 22:09:00,69.5,65.7,30.20,NNE,23,0.0,0.0,88,0.00,,,0.97,WUHU216HW,2013-08-20 02:09:00,
2013-08-19 22:14:00,69.5,65.7,30.21,NNE,23,0.0,0.0,88,0.00,,,0.97,WUHU216HW,2013-08-20 02:14:00,
2013-08-19 22:20:00,69.5,65.7,30.21,NNE,23,0.0,0.0,88,0.00,,,0.97,WUHU216HW,2013-08-20 02:20:00,
2013-08-19 22:25:00,69.5,65.7,30.21,NNE,23,0.0,0.0,88,0.00,,,0.97,WUHU216HW,2013-08-20 02:25:00,
2013-08-19 22:30:00,69.5,65.7,30.21,NNE,23,0.0,0.0,88,0.00,,,0.97,WUHU216HW,2013-08-20 02:30:00,
2013-08-19 22:35:00,69.5,65.7,30.21,East,90,0.0,0.0,88,0.00,,,0.97,WUHU216HW,2013-08-20 02:35:00,
2013-08-19 22:40:00,69.3,65.6,30.20,NNE,23,0.0,0.0,88,0.00,,,0.97,WUHU216HW,2013-08-20 02:40:00,
2013-08-19 22:45:00,69.5,66.1,30.20,NNE,23,0.0,0.0,89,0.00,,,0.97,WUHU216HW,2013-08-20 02:45:00,
2013-08-19 22:50:00,69.5,66.1,30.20,North,0,0.0,0.0,89,0.00,,,0.97,WUHU216HW,2013-08-20 02:50:00,
2013-08-19 22:55:00,69.5,66.1,30.21,North,0,0.0,0.0,89,0.00,,,0.97,WUHU216HW,2013-08-20 02:55:00,
2013-08-19 23:00:00,69.5,66.1,30.21,North,0,0.0,0.0,89,0.00,,,0.97,WUHU216HW,2013-08-20 03:00:00,
2013-08-19 23:05:00,69.3,65.9,30.21,SE,135,0.0,0.0,89,0.00,,,0.97,WUHU216HW,2013-08-20 03:05:00,
2013-08-19 23:10:00,69.3,65.9,30.21,ENE,68,0.0,0.0,89,0.00,,,0.97,WUHU216HW,2013-08-20 03:10:00,
2013-08-19 23:15:00,69.1,65.7,30.21,NE,45,0.0,0.0,89,0.00,,,0.97,WUHU216HW,2013-08-20 03:15:00,
2013-08-19 23:21:00,68.9,65.5,30.21,NE,45,0.0,0.0,89,0.00,,,0.97,WUHU216HW,2013-08-20 03:21:00,
2013-08-19 23:26:00,68.8,65.7,30.21,North,0,0.0,0.0,90,0.00,,,0.97,WUHU216HW,2013-08-20 03:26:00,
2013-08-19 23:31:00,68.8,65.7,30.22,SE,135,0.0,0.0,90,0.00,,,0.97,WUHU216HW,2013-08-20 03:31:00,
2013-08-19 23:36:00,68.6,65.2,30.22,NNW,338,0.0,0.0,89,0.00,,,0.97,WUHU216HW,2013-08-20 03:36:00,
2013-08-19 23:41:00,68.6,65.5,30.22,NNW,338,0.0,0.0,90,0.00,,,0.97,WUHU216HW,2013-08-20 03:41:00,
2013-08-19 23:46:00,68.6,65.5,30.22,North,0,0.0,0.0,90,0.00,,,0.97,WUHU216HW,2013-08-20 03:46:00,
2013-08-19 23:51:00,68.4,65.3,30.22,North,0,0.0,0.0,90,0.00,,,0.97,WUHU216HW,2013-08-20 03:51:00,
2013-08-19 23:56:00,68.4,65.3,30.22,North,0,0.0,0.0,90,0.00,,,0.00,WUHU216HW,2013-08-20 03:56:00,